Location: Unspecified
(0.0000°N, 0.0000°E)
Time: 10:11:18
(UTC+00:00)

deb NOAA 5 - Pass Details

Date: 19 February 2026
Orbit: 1470 x 1835 km, 102.5° (Epoch: 8 March)

Event Time Altitude Azimuth Distance (km) Brightness Sun altitude
Rises 22:23:00 0° 195° (SSW) 4,803 ? -60.4°
Reaches altitude 10° 22:27:13 10° 213° (SSW) 3,754 ? -61.3°
Enters shadow 22:27:35 11° 215° (SW) 3,681 ? -61.4°
